Location: Newark
(39.0622°N, 106.5590°E)
Time: 11:20:58
(UTC+00:00)

Vanguard 2 Rocket - Pass Details

Date: 26 January 2020
Orbit: 553 x 3327 km, 32.9° (Epoch: 26 February)

Event Time Altitude Azimuth Distance (km) Brightness Sun altitude
Rises 23:19:58 0° 258° (WSW) 2,890 - -9.1°
Exits shadow 23:21:19 - 254° (WSW) 2,364 8.5 -8.8°
Reaches altitude 10° 23:21:58 10° 252° (WSW) 2,120 8.3 -8.7°
Maximum altitude 23:26:34 48° 178° (S) 1,144 7.6 -7.9°
Drops below altitude 10° 23:33:52 10° 107° (ESE) 3,350 11.7 -6.5°
Sets 23:37:50 0° 102° (ESE) 4,791 13.1 -5.8°
